| time (UTC) | temp C | wind direction | speed KPH | gust KPH | rain 1hr cm | rain 24hr cm | rain mn cm | humidity % | barometer mb |
| 20260510054526 | 10 | 20 | 0.0 | 0.0 | 0.00 | 0.00 | 0.00 | 95 | 1012.1 |
| 20260510053025 | 8 | 20 | 0.0 | 0.0 | 0.00 | 0.00 | 0.00 | 95 | 1012.1 |
| 20260510051520 | 7 | 20 | 0.0 | 0.0 | 0.00 | 0.00 | 0.00 | 93 | 1012.1 |
| 20260510044527 | 6 | 20 | 0.0 | 0.0 | 0.00 | 0.00 | 0.00 | 91 | 1012.3 |
| 20260510043013 | 6 | 20 | 0.0 | 0.0 | 0.00 | 0.00 | 0.00 | 91 | 1012.4 |
| 20260510041513 | 6 | 20 | 0.0 | 0.0 | 0.00 | 0.00 | 0.00 | 90 | 1012.4 |
| 20260510034509 | 6 | 20 | 0.0 | 0.0 | 0.00 | 0.00 | 0.00 | 89 | 1012.5 |
| 20260510033007 | 6 | 20 | 0.0 | 0.0 | 0.00 | 0.00 | 0.00 | 89 | 1012.4 |
| 20260510031505 | 6 | 20 | 0.0 | 0.0 | 0.00 | 0.00 | 0.00 | 89 | 1012.4 |
| 20260510024559 | 7 | 20 | 0.0 | 0.0 | 0.00 | 0.00 | 0.00 | 88 | 1012.4 |
| 20260510023056 | 7 | 20 | 0.0 | 0.0 | 0.00 | 0.00 | 0.00 | 88 | 1012.7 |
| 20260510021555 | 7 | 20 | 0.0 | 0.0 | 0.00 | 0.00 | 0.00 | 88 | 1012.7 |
| 20260510014553 | 7 | 20 | 0.0 | 0.0 | 0.00 | 0.00 | 0.00 | 87 | 1012.9 |
| 20260510013051 | 7 | 20 | 0.0 | 0.0 | 0.00 | 0.00 | 0.00 | 87 | 1013.0 |
| 20260510011550 | 8 | 20 | 0.0 | 0.0 | 0.00 | 0.00 | 0.00 | 86 | 1013.0 |
| 20260510004544 | 8 | 20 | 0.0 | 0.0 | 0.00 | 0.00 | 0.00 | 86 | 1013.4 |
| 20260510003041 | 8 | 20 | 0.0 | 0.0 | 0.00 | 0.00 | 0.00 | 85 | 1013.4 |
| 20260510001542 | 8 | 20 | 0.0 | 0.0 | 0.00 | 0.00 | 0.00 | 85 | 1013.6 |
| 20260509234548 | 9 | 20 | 0.0 | 0.0 | 0.00 | 0.00 | 0.00 | 84 | 1013.9 |
| 20260509233034 | 10 | 20 | 0.0 | 0.0 | 0.00 | 0.00 | 0.00 | 83 | 1014.0 |
| 20260509231531 | 10 | 20 | 0.0 | 0.0 | 0.00 | 0.00 | 0.00 | 83 | 1014.0 |
| 20260509224528 | 11 | 20 | 0.0 | 0.0 | 0.00 | 0.00 | 0.00 | 82 | 1014.3 |
| 20260509223026 | 11 | 20 | 0.0 | 0.0 | 0.00 | 0.00 | 0.00 | 82 | 1014.3 |
| 20260509221524 | 11 | 20 | 0.0 | 0.0 | 0.00 | 0.00 | 0.00 | 81 | 1014.3 |
| 20260509214527 | 12 | 20 | 0.0 | 0.0 | 0.00 | 0.00 | 0.00 | 81 | 1014.5 |
| 20260509213020 | 12 | 20 | 0.0 | 0.0 | 0.00 | 0.00 | 0.00 | 80 | 1014.4 |
| 20260509211519 | 12 | 20 | 0.0 | 0.0 | 0.00 | 0.00 | 0.00 | 78 | 1014.5 |
| 20260509204524 | 13 | 20 | 0.0 | 0.0 | 0.00 | 0.00 | 0.00 | 76 | 1014.7 |
| 20260509203017 | 14 | 20 | 0.0 | 0.0 | 0.00 | 0.00 | 0.00 | 74 | 1014.7 |
| 20260509201517 | 14 | 20 | 0.0 | 0.0 | 0.00 | 0.00 | 0.00 | 72 | 1014.8 |
| 20260509194518 | 16 | 20 | 0.0 | 0.0 | 0.00 | 0.00 | 0.00 | 68 | 1014.8 |
| 20260509193014 | 16 | 20 | 0.0 | 0.0 | 0.00 | 0.00 | 0.00 | 67 | 1014.8 |
| 20260509191518 | 17 | 20 | 0.0 | 0.0 | 0.00 | 0.00 | 0.00 | 65 | 1014.7 |
| 20260509184517 | 18 | 20 | 0.0 | 0.0 | 0.00 | 0.00 | 0.00 | 59 | 1014.5 |
| 20260509183014 | 18 | 20 | 0.0 | 0.0 | 0.00 | 0.00 | 0.00 | 57 | 1014.3 |
| 20260509181512 | 20 | 20 | 0.0 | 0.0 | 0.00 | 0.00 | 0.00 | 55 | 1014.3 |
| 20260509174512 | 21 | 20 | 0.0 | 1.6 | 0.00 | 0.00 | 0.00 | 52 | 1014.2 |
| 20260509173011 | 21 | 20 | 0.0 | 8.0 | 0.00 | 0.00 | 0.00 | 51 | 1014.1 |
| 20260509171511 | 21 | 19 | 0.0 | 1.6 | 0.00 | 0.00 | 0.00 | 49 | 1014.0 |
| 20260509164508 | 21 | 19 | 0.0 | 3.2 | 0.00 | 0.00 | 0.00 | 49 | 1014.2 |
| 20260509163006 | 20 | 19 | 0.0 | 4.8 | 0.00 | 0.00 | 0.00 | 51 | 1014.5 |
| 20260509161505 | 20 | 19 | 0.0 | 4.8 | 0.00 | 0.00 | 0.00 | 54 | 1014.6 |
| 20260509154507 | 21 | 24 | 0.0 | 9.7 | 0.00 | 0.00 | 0.00 | 49 | 1014.7 |
| 20260509153004 | 21 | 19 | 1.6 | 8.0 | 0.00 | 0.00 | 0.00 | 50 | 1014.9 |
| 20260509151503 | 20 | 16 | 1.6 | 8.0 | 0.00 | 0.00 | 0.00 | 52 | 1014.9 |
| 20260509144507 | 20 | 19 | 0.0 | 4.8 | 0.00 | 0.00 | 0.00 | 53 | 1015.0 |
| 20260509143002 | 20 | 19 | 0.0 | 4.8 | 0.00 | 0.00 | 0.00 | 53 | 1015.2 |
| 20260509141600 | 21 | 19 | 0.0 | 4.8 | 0.00 | 0.00 | 0.00 | 53 | 1015.2 |
| 20260509134609 | 21 | 39 | 0.0 | 6.4 | 0.00 | 0.00 | 0.00 | 52 | 1015.6 |
| 20260509133052 | 20 | 39 | 1.6 | 6.4 | 0.00 | 0.00 | 0.00 | 50 | 1015.7 |
| 20260509131548 | 20 | 82 | 0.0 | 8.0 | 0.00 | 0.00 | 0.00 | 55 | 1016.0 |
| 20260509124546 | 20 | 69 | 0.0 | 1.6 | 0.00 | 0.00 | 0.00 | 54 | 1016.4 |
| 20260509123101 | 20 | 70 | 0.0 | 8.0 | 0.00 | 0.00 | 0.00 | 53 | 1016.4 |
| 20260509121600 | 20 | 62 | 0.0 | 1.6 | 0.00 | 0.00 | 0.00 | 55 | 1016.6 |
| 20260509114540 | 20 | 76 | 0.0 | 6.4 | 0.00 | 0.00 | 0.00 | 58 | 1017.0 |
| 20260509113039 | 19 | 24 | 0.0 | 6.4 | 0.00 | 0.00 | 0.00 | 58 | 1017.1 |
| 20260509111545 | 19 | 47 | 1.6 | 6.4 | 0.00 | 0.00 | 0.00 | 56 | 1017.2 |
| 20260509104540 | 18 | 69 | 0.0 | 8.0 | 0.00 | 0.00 | 0.00 | 58 | 1017.6 |
| 20260509103029 | 19 | 45 | 0.0 | 4.8 | 0.00 | 0.00 | 0.00 | 57 | 1017.7 |
| 20260509101536 | 19 | 80 | 0.0 | 8.0 | 0.00 | 0.00 | 0.00 | 55 | 1017.8 |
| 20260509094536 | 18 | 61 | 0.0 | 8.0 | 0.00 | 0.00 | 0.00 | 55 | 1017.9 |
| 20260509093027 | 18 | 55 | 1.6 | 11.3 | 0.00 | 0.00 | 0.00 | 56 | 1017.9 |
| 20260509091535 | 18 | 47 | 1.6 | 8.0 | 0.00 | 0.00 | 0.00 | 57 | 1018.0 |
| 20260509084511 | 17 | 62 | 0.0 | 6.4 | 0.00 | 0.00 | 0.00 | 64 | 1018.2 |
| 20260509083009 | 16 | 26 | 1.6 | 6.4 | 0.00 | 0.00 | 0.00 | 67 | 1018.2 |
| 20260509081504 | 16 | 22 | 0.0 | 8.0 | 0.00 | 0.00 | 0.00 | 68 | 1018.3 |
| 20260509080200 | 14 | 49 | 1.6 | 4.8 | 0.00 | 0.00 | 0.00 | 73 | 1018.3 |
| 20260509074559 | 13 | 55 | 0.0 | 6.4 | 0.00 | 0.00 | 0.00 | 74 | 1018.4 |
| 20260509073105 | 13 | 71 | 0.0 | 6.4 | 0.00 | 0.00 | 0.00 | 76 | 1018.4 |
| 20260509071556 | 12 | 42 | 0.0 | 3.2 | 0.00 | 0.00 | 0.00 | 76 | 1018.6 |
| 20260509070149 | 12 | 36 | 0.0 | 3.2 | 0.00 | 0.00 | 0.00 | 78 | 1018.6 |
| 20260509064557 | 12 | 32 | 0.0 | 3.2 | 0.00 | 0.00 | 0.00 | 80 | 1018.6 |
| 20260509063044 | 11 | 32 | 0.0 | 6.4 | 0.00 | 0.00 | 0.00 | 83 | 1018.4 |
| 20260509061538 | 10 | 33 | 0.0 | 4.8 | 0.00 | 0.00 | 0.00 | 90 | 1018.5 |
| 20260509060136 | 9 | 17 | 0.0 | 0.0 | 0.00 | 0.00 | 0.00 | 93 | 1018.5 |